Flag for Moldova Weather past 2 weeks in Tiraspol, Moldova

Now
54 °F

Fog.


Feels Like: 49 °F
Forecast: 31 / 44 °F
Wind: 16 mph from Northeast

Location: Chisinau International Airport

Current Time: Oct 23, 2014 at 3:43:53 PM

Latest Report: Oct 23, 2014 at 3:00 PM


Visibility: 3 mi

Pressure: 29.77 "Hg

Humidity: 88%

Dew point: 50 °F

Location of TiraspolLocation

Historic Weather in Tiraspol — Graph

°F

Tiraspol temperature yesterday

Maximum temperature yesterday: 55 °F (at 2:00 PM)
Minimum temperature yesterday: 45 °F (at 4:00 AM)
Average temperature yesterday: 50 °F

Past Weeks' High & Low Weather Summary

 TemperatureHumidityPressure
High77 °F (Oct 15, 3:00 PM)100% (Oct 22, 10:00 AM)30.42 "Hg (Oct 22, 10:00 AM)
Low30 °F (Oct 19, 4:00 AM)20% (Oct 12, 4:00 PM)29.65 "Hg (Oct 23, 3:30 AM)
Average54 °F67%30.01 "Hg
* Reported Oct 8 2:00 PM — Oct 23 2:30 PM, Tiraspol, Weather by CustomWeather, © 2014

Note: Actual official high and low records may vary slightly from our data, if they occured in-between our weather recording intervals... More about our weather records

Advertising

Tiraspol weather history for previous 24 hours

 ConditionsComfort  
Time TempWeatherWind HumidityBarometerVisibility
2:30 PM
Oct 23
54 °FFog.14 mph94%29.77 "Hg3 mi
2:00 PM54 °FFog.14 mph94%29.77 "Hg2 mi
1:30 PM54 °FLow clouds.13 mph94%29.77 "Hg5 mi
1:00 PM54 °FSprinkles. Fog.13 mph94%29.74 "Hg2 mi
12:30 PM54 °FSprinkles. Fog.13 mph100%29.74 "Hg2 mi
12:00 PM55 °FFog.17 mph94%29.74 "Hg2 mi
11:30 AM55 °FSprinkles. Fog.15 mph94%29.74 "Hg1 mi
11:00 AM55 °FSprinkles. Fog.14 mph94%29.74 "Hg2 mi
10:30 AM55 °FFog.14 mph94%29.71 "Hg2 mi
10:00 AM55 °FLight rain. Fog.14 mph94%29.71 "Hg2 mi
9:30 AM55 °FFog.16 mph94%29.71 "Hg1 mi
9:00 AM55 °FFog.14 mph94%29.71 "Hg1 mi
8:30 AM55 °FFog.13 mph94%29.68 "Hg1 mi
8:00 AM55 °FFog.14 mph94%29.68 "Hg2 mi
7:30 AM55 °FLight rain. Fog.15 mph94%29.68 "Hg1 mi
7:00 AM55 °FLight rain. Fog.13 mph94%29.68 "Hg1 mi
6:30 AM55 °FFog.10 mph94%29.68 "Hg1 mi
6:00 AM55 °FFog.10 mph94%29.68 "Hg1 mi
5:30 AM55 °FFog.9 mph94%29.68 "Hg1 mi
5:00 AM55 °FFog.12 mph94%29.68 "Hg1 mi
4:30 AM55 °FFog.8 mph94%29.68 "Hg1 mi
4:00 AM55 °FFog.9 mph94%29.65 "Hg1 mi
3:30 AM55 °FFog.13 mph94%29.65 "Hg1 mi
3:00 AM55 °FFog.14 mph94%29.68 "Hg1 mi
2:30 AM55 °FFog.12 mph94%29.68 "Hg1 mi
2:00 AM55 °FFog.9 mph94%29.68 "Hg2 mi
1:30 AM55 °FFog.8 mph94%29.68 "Hg2 mi
1:00 AM55 °FFog.8 mph94%29.68 "Hg2 mi
12:30 AM55 °FFog.8 mph94%29.68 "Hg2 mi
12:00 AM55 °FFog.8 mph94%29.68 "Hg2 mi
11:30 PM
Oct 22
55 °FFog.8 mph94%29.68 "Hg2 mi
11:00 PM55 °FFog.8 mph94%29.68 "Hg2 mi
10:30 PM55 °FFog.8 mph88%29.68 "Hg2 mi
10:00 PM55 °FFog.8 mph88%29.68 "Hg2 mi
9:30 PM55 °FFog.9 mph88%29.68 "Hg2 mi
9:00 PM55 °FFog.12 mph88%29.68 "Hg2 mi
8:30 PM55 °FFog.13 mph88%29.68 "Hg2 mi
8:00 PM55 °FFog.12 mph88%29.68 "Hg2 mi
7:30 PM55 °FLight rain. Fog.12 mph94%29.68 "Hg2 mi
7:00 PM55 °FLight rain. Fog.10 mph88%29.68 "Hg3 mi
6:30 PM55 °FLight rain. Overcast.8 mph88%29.68 "HgN/A
6:00 PM55 °FLight rain. Mostly cloudy.8 mph88%29.68 "Hg4 mi
5:30 PM55 °FMostly cloudy.8 mph88%29.68 "HgN/A
5:00 PM55 °FMore clouds than sun.8 mph88%29.68 "HgN/A
4:30 PM55 °FOvercast.6 mph88%29.68 "HgN/A
4:00 PM55 °FOvercast.6 mph88%29.68 "HgN/A
3:30 PM55 °FMore clouds than sun.8 mph88%29.68 "HgN/A
3:00 PM55 °FPartly sunny.8 mph88%29.68 "HgN/A
Weather by CustomWeather, © 2014

See weather overviewHow to use our weather pages